Weather History for KFUL - October, 2011

Change the Weather History Date:

Thursday, October 27, 2011

  Actual Average Record
Temperature  
Mean Temperature 65 °F 66 °F  
Max Temperature 80 °F 77 °F 95 °F (2003)
Min Temperature 50 °F 55 °F 50 °F (2011)
Degree Days  
Heating Degree Days 0 2  
Month to date heating degree days 9 13  
Since 1 July heating degree days 9 14  
Cooling Degree Days 0 2  
Month to date cooling degree days 135 105  
Year to date cooling degree days 1159 1223  
Growing Degree Days 15 (Base 50)    
Moisture  
Dew Point 41 °F    
Average Humidity 52    
Maximum Humidity 86    
Minimum Humidity 17    
Precipitation  
Precipitation 0.00 in 0.03 in 0.97 in (2000)
Month to date precipitation 0.70 0.61  
Year to date precipitation 6.33 10.59  
Since 1 July precipitation 0.76 0.94  
Snow  
Snow 0.00 in - - ()
Month to date snowfall 0.0  
Year to date snowfall 0.0  
Since 1 July snowfall 0.0  
Snow Depth 0.00 in    
Sea Level Pressure  
Sea Level Pressure 29.99 in    
Wind  
Wind Speed 3 mph (West)    
Max Wind Speed 9 mph    
Max Gust Speed 18 mph    
Visibility 10 miles    
Events      
T = Trace of Precipitation, MM = Missing Value Source: NWS Daily Summary

Daily Weather History Graph

Daily Weather History Graph

Search for Another Location

Airport or City:

Trip Planner

Search our weather history database for the weather conditions in past years. The results will help you decide how hot, cold, wet, or windy it might be!

Date:

Astronomy

Oct. 27, 2011 Rise Set
Actual Time 7:06 AM PDT 6:04 PM PDT
Civil Twilight 6:41 AM PDT 6:29 PM PDT
Nautical Twilight 6:11 AM PDT 6:59 PM PDT
Astronomical Twilight 5:42 AM PDT 7:28 PM PDT
Moon 8:09 AM PDT 6:44 PM PDT
Length of Visible Light 11h 48m
Length of Day
10h 57m
New Moon, 1% of the Moon is Illuminated
Oct 27
New Moon
Nov 2
First Quarter
Nov 10
Full
Nov 18
Last Quarter
Nov 24
New

Hourly Weather History & Observations

Time (PDT) Temp. Dew Point Humidity Pressure Visibility Wind Dir Wind Speed Gust Speed Precip Events Conditions
1:53 AM 55.0 °F 48.0 °F 77% 30.01 in 10.0 mi Calm Calm - N/A   Clear
2:53 AM 53.1 °F 46.9 °F 80% 30.01 in 10.0 mi East 3.5 mph - N/A   Clear
3:53 AM 52.0 °F 46.9 °F 83% 29.99 in 10.0 mi Calm Calm - N/A   Clear
4:53 AM 51.1 °F 46.0 °F 83% 29.99 in 10.0 mi Calm Calm - N/A   Clear
5:53 AM 50.0 °F 45.0 °F 83% 29.99 in 10.0 mi Calm Calm - N/A   Clear
6:53 AM 50.0 °F 46.0 °F 86% 29.98 in 9.0 mi Calm Calm - N/A   Clear
7:53 AM 52.0 °F 46.9 °F 83% 29.99 in 8.0 mi Calm Calm - N/A   Clear
8:53 AM 62.1 °F 45.0 °F 53% 30.00 in 10.0 mi NW 5.8 mph - N/A   Clear
9:53 AM 70.0 °F 43.0 °F 38% 30.01 in 10.0 mi NW 4.6 mph - N/A   Clear
10:53 AM 75.0 °F 36.0 °F 24% 30.02 in 10.0 mi Calm Calm - N/A   Clear
11:53 AM 78.1 °F 33.1 °F 19% 30.01 in 10.0 mi West 4.6 mph - N/A   Clear
12:53 PM 78.1 °F 37.9 °F 24% 29.99 in 10.0 mi Calm Calm - N/A   Clear
1:53 PM 79.0 °F 43.0 °F 28% 29.95 in 10.0 mi Variable 5.8 mph - N/A   Clear
2:53 PM 79.0 °F 37.0 °F 22% 29.94 in 10.0 mi SSW 6.9 mph - N/A   Clear
3:53 PM 80.1 °F 33.1 °F 18% 29.93 in 10.0 mi Variable 4.6 mph - N/A   Clear
4:53 PM 78.1 °F 30.0 °F 17% 29.94 in 10.0 mi SSW 6.9 mph - N/A   Clear
5:53 PM 73.0 °F 28.0 °F 19% 29.95 in 10.0 mi SW 3.5 mph - N/A   Clear
6:53 PM 70.0 °F 36.0 °F 29% 29.97 in 10.0 mi Calm Calm - N/A   Clear
7:53 PM 68.0 °F 41.0 °F 37% 29.99 in 10.0 mi NW 3.5 mph - N/A   Clear
8:53 PM 62.1 °F 42.1 °F 48% 29.99 in 10.0 mi Calm Calm - N/A   Clear
9:53 PM 60.1 °F 41.0 °F 49% 30.00 in 10.0 mi Calm Calm - N/A   Clear
10:53 PM 57.9 °F 44.1 °F 60% 30.01 in 10.0 mi Calm Calm - N/A   Clear
11:53 PM 55.0 °F 42.1 °F 62% 30.01 in 10.0 mi Calm Calm - N/A   Clear